sat.trackr.live / text

‹ back to catalog

STARLINK-34478

NORAD 64435 · 2025-129Z

PAYLOAD ACTIVE UNKNOWN

§ Identity

Operator
Country
US
Launch date
2025-06-17
Launch site
AFWTR
Launch vehicle
Mass (kg)
RCS (m²)

Purposes: comms

External: N2YO · Heavens-Above · Gunter

§ Orbital elements

Epoch: 2026-05-25T05:32:41.347104Z

Period
96.11 min
Inclination
70.0004°
Eccentricity
0.0003439
Mean motion
14.98337559 rev/d
Perigee alt
569.6 km
Apogee alt
574.4 km
Semi-major
6,950.2 km
B*
9.3416e-4
RAAN
241.4152°
Arg perigee
269.3931°
Mean anomaly
90.6834°
Rev number
5,269

§ Raw data

STARLINK-344781 64435U 25129Z   26145.23103411  .00011073  00000+0  93416-3 0  99912 64435  70.0004 241.4152 0003439 269.3931  90.6834 14.98337559 52692

JSON: /api/v1/satellites/64435 · /tle

For live sub-satellite position, see the globe view (requires WebGL).

§ Visibility from observer

Set your observer location to see the next 7 days of passes ≥ 10°. The values pass through the URL so the page stays shareable.

No JS? Fill the form by hand. The geolocation button needs JavaScript.